[[{"header":{"parameterUnit":"m.s-1","parameterCategory":2,"la1":30.2991,"la2":30.254,"lo1":-89.0895,"lo2":-89.0444,"dy":0.0017,"dx":0.0017,"nx":28,"ny":28,"refTime":"2025-07-11T09:00:00:Z","depth":"0","parameterNumber":2,"parameterNumberName":"U-component_of_CURRENTS"},"data":[0,0,0,0,0,0,0,0,0,0,0,0,0,0,0,0,0,0,0,0,0,0,0,0,0,0,0,0,0,0,0,0,0,0,0,0,0,0,0,0,0,0,0,0,0,0,0,0,0,0,0,0,0,0,0,0,0,0,-0.127,-0.1269,0,-0.1254,-0.1254,-0.1254,-0.1199,-0.1198,-0.1196,-0.1195,-0.107,-0.1068,-0.1066,0,0,0,0,0,0,0,0,0,0,0,0,0,-0.1333,-0.1332,-0.127,-0.1269,-0.1269,-0.1254,-0.1254,-0.1254,-0.1199,-0.1197,-0.1196,-0.1194,-0.1071,-0.1068,-0.1066,0,0,0,0,0,0,0,0,0,0,0,0,0,-0.1311,-0.1332,-0.127,-0.1239,-0.1236,-0.1254,-0.1254,-0.1254,-0.1199,-0.1197,-0.1195,-0.1194,-0.1071,-0.1068,-0.1065,-0.1086,0,0,-0.1056,-0.1054,0,0,0,0,0,0,0,0,-0.1313,-0.1309,-0.1244,-0.1241,-0.1238,-0.1225,-0.1231,-0.1192,-0.12,-0.1215,-0.1195,-0.1193,-0.1113,-0.1106,-0.1111,-0.108,-0.1075,-0.1056,-0.1054,-0.1052,-0.1051,0,0,0,0,0,0,0,-0.1314,-0.131,-0.1264,-0.1244,-0.124,-0.1254,-0.1248,-0.1224,-0.1174,-0.1213,-0.1209,-0.1206,-0.111,-0.1114,-0.1107,-0.1073,-0.1056,-0.1053,-0.1051,-0.105,-0.1015,-0.1016,0,0,0,0,0,0,-0.1312,-0.1311,-0.1265,-0.1264,-0.127,-0.1254,-0.1248,-0.1232,-0.1176,-0.1166,-0.1208,-0.1204,-0.112,-0.1111,-0.1102,-0.1098,-0.1052,-0.1049,-0.1048,-0.1014,-0.1016,-0.1017,0,0,0,0,0,0,-0.1313,-0.1307,-0.1266,-0.1287,-0.1283,-0.1255,-0.1238,-0.1233,-0.1222,-0.1173,-0.1161,-0.12,-0.1118,-0.1106,-0.1075,-0.1093,-0.1048,-0.1045,-0.1013,-0.1015,-0.1016,-0.1106,0,0,0,0,0,0,-0.1315,-0.1308,-0.1304,-0.1287,-0.1281,-0.1272,-0.124,-0.1234,-0.1224,-0.1218,-0.1163,-0.115,-0.1116,-0.108,-0.1072,-0.1088,-0.1043,-0.1012,-0.1014,-0.1016,-0.1101,-0.111,-0.1117,0,0,0,0,0,-0.1317,-0.1315,-0.1303,-0.1298,-0.1273,-0.1273,-0.1272,-0.1247,-0.1225,-0.1228,-0.119,-0.1151,-0.1086,-0.1079,-0.1069,-0.1084,-0.1011,-0.1013,-0.1015,-0.1098,-0.1108,-0.1117,0,0,0,0,0,0,-0.1335,-0.1309,-0.1295,-0.1283,-0.1278,-0.1263,-0.1266,-0.1249,-0.1226,-0.1215,-0.1162,-0.1148,-0.1123,-0.1096,-0.1089,-0.108,-0.1043,-0.1043,-0.1109,-0.1118,-0.1126,-0.1134,-0.104,0,0,0,0,0,-0.1341,-0.1332,-0.1313,-0.1306,-0.1303,-0.1287,-0.1285,-0.1269,-0.1246,-0.1234,-0.1194,-0.1157,-0.1132,-0.1116,-0.1084,-0.1085,-0.1082,-0.1089,-0.1097,-0.1104,-0.1104,-0.1157,-0.1171,-0.1024,-0.1024,-0.1024,0,0,-0.1347,-0.1332,-0.1327,-0.1311,-0.1305,-0.1309,-0.128,-0.128,-0.128,-0.1224,-0.1207,-0.1175,-0.1134,-0.1129,-0.1118,-0.1106,-0.114,-0.1106,-0.1113,-0.1109,-0.1161,-0.1176,-0.1189,-0.1025,-0.1025,-0.1025,0,0,-0.136,-0.1343,-0.1342,-0.1342,-0.1335,-0.1329,-0.1327,-0.1311,-0.1299,-0.1287,-0.1248,-0.1241,-0.1186,-0.1184,-0.1171,-0.1208,-0.1173,-0.1182,-0.1238,-0.1291,-0.1304,-0.1315,-0.1317,-0.1328,-0.1196,-0.1197,-0.1197,0,-0.1367,-0.1356,-0.1346,-0.135,-0.1353,-0.1336,-0.1344,-0.1342,-0.1316,-0.1327,-0.1284,-0.1268,-0.1222,-0.1255,-0.1246,-0.1229,-0.1226,-0.1207,-0.1304,-0.1315,-0.1325,-0.1324,-0.1335,-0.1201,-0.1201,-0.12,-0.12,0,-0.1379,-0.1375,-0.1379,-0.1374,-0.1385,-0.1389,-0.1387,-0.1396,-0.1377,-0.1379,-0.1394,-0.136,-0.1355,-0.1342,-0.1288,-0.1344,-0.1305,-0.1303,-0.1285,-0.1346,-0.134,-0.135,-0.1208,-0.1206,-0.1205,-0.1204,0,0,-0.1362,-0.138,-0.1379,-0.1388,-0.1395,-0.1405,-0.1431,-0.1455,-0.1485,-0.1474,-0.1518,-0.1482,-0.1475,-0.1459,-0.1426,-0.1457,-0.1504,-0.1396,-0.1397,-0.1406,-0.158,-0.1422,-0.1417,-0.1519,-0.1521,-0.1523,-0.1542,0,-0.1364,-0.1377,-0.1392,-0.1415,-0.1419,-0.1443,-0.1475,-0.1507,-0.152,-0.156,-0.1574,-0.1582,-0.152,-0.1515,-0.1544,-0.15,-0.1535,-0.1496,-0.1511,-0.151,-0.1372,-0.1426,-0.1231,-0.122,-0.1551,-0.1553,-0.1554,0,-0.1355,-0.1366,-0.1385,-0.1436,-0.1445,-0.1464,-0.1531,-0.1558,-0.1631,-0.1648,-0.1697,-0.1689,-0.1715,-0.1659,-0.1675,-0.1646,-0.1613,-0.1594,-0.1595,-0.1423,-0.1372,-0.1215,-0.1225,-0.1191,-0.1569,-0.1568,-0.1567,0,-0.1328,-0.1361,-0.1376,-0.1387,-0.1443,-0.1472,-0.1506,-0.1581,-0.1608,-0.1701,-0.1723,-0.179,-0.1779,-0.1798,-0.1711,-0.17,-0.1722,-0.172,-0.1569,-0.1556,-0.1378,-0.1344,-0.1363,-0.1768,-0.1768,-0.1768,-0.1768,0,-0.1308,-0.1319,-0.1362,-0.1367,-0.14,-0.1458,-0.1509,-0.1565,-0.1645,-0.1668,-0.175,-0.1761,-0.1805,-0.1803,-0.1765,-0.1666,-0.1774,-0.1577,-0.156,-0.1397,-0.1367,-0.1316,-0.1359,-0.1768,-0.1768,-0.1768,-0.1768,0,-0.1262,-0.1291,-0.1303,-0.136,-0.1377,-0.1396,-0.1467,-0.1502,-0.1594,-0.1626,-0.1646,-0.1729,-0.1711,-0.1739,-0.1746,-0.1684,-0.1598,-0.1599,-0.1368,-0.1322,-0.1118,-0.1174,-0.1239,-0.121,-0.1445,-0.1441,-0.1438,0,-0.1236,-0.1236,-0.1272,-0.1267,-0.1281,-0.1321,-0.1343,-0.1448,-0.1471,-0.1567,-0.1561,-0.1596,-0.1558,-0.1533,-0.1448,-0.1395,-0.146,-0.1206,-0.1156,-0.1076,-0.113,-0.1229,-0.121,-0.0959,-0.0952,-0.0947,-0.0942,0,-0.1176,-0.1185,-0.1193,-0.118,-0.1185,-0.12,-0.1232,-0.1247,-0.1346,-0.1366,-0.1364,-0.1357,-0.1308,-0.1135,-0.1078,-0.1049,-0.1142,-0.1086,-0.1094,-0.0817,-0.0843,-0.0813,-0.0961,-0.0893,-0.0898,-0.0902,-0.0904,-0.0906,-0.1117,-0.1101,-0.11,-0.1079,-0.108,-0.1053,-0.1024,-0.1051,-0.1049,-0.1021,-0.1104,-0.0974,-0.0834,-0.0695,-0.0718,-0.0573,-0.0763,-0.0518,-0.0611,-0.0735,-0.0649,-0.0649,-0.0505,-0.0508,-0.051,-0.0512,-0.0514,0,-0.1037,-0.1023,-0.0999,-0.0961,-0.0905,-0.0942,-0.0926,-0.0868,-0.0792,-0.0722,-0.0674,-0.037,-0.023,-0.0193,-0.0043,-0.0067,-0.0176,-0.0142,-0.0253,-0.0272,-0.0312,-0.0222,0.01,0.01,0.01,0.0099,0.0099,0.0099,-0.0992,-0.0943,-0.0926,-0.0794,-0.0757,-0.0656,-0.0615,-0.0531,-0.0443,-0.0197,0.0038,0.0148,0.027,0.0243,0.022,0.0162,0.0015,0.0014,-0.0149,-0.0156,-0.0199,-0.0241,-0.0165,0.0164,0.0164,-0.0013,-0.0014,-0.0016]},{"header":{"parameterUnit":"m.s-1","parameterCategory":2,"la1":30.2991,"la2":30.254,"lo1":-89.0895,"lo2":-89.0444,"dy":0.0017,"dx":0.0017,"nx":28,"ny":28,"refTime":"2025-07-11T09:00:00:Z","depth":"0","parameterNumber":3,"parameterNumberName":"V-component_of_CURRENTS"},"data":[0,0,0,0,0,0,0,0,0,0,0,0,0,0,0,0,0,0,0,0,0,0,0,0,0,0,0,0,0,0,0,0,0,0,0,0,0,0,0,0,0,0,0,0,0,0,0,0,0,0,0,0,0,0,0,0,0,0,-0.006,-0.006,0,-0.0042,-0.0042,-0.0041,-0.0015,-0.0015,-0.0015,-0.0015,0.0033,0.0035,0.0036,0,0,0,0,0,0,0,0,0,0,0,0,0,-0.0032,-0.0032,-0.006,-0.006,-0.006,-0.0043,-0.0042,-0.0041,-0.0015,-0.0015,-0.0015,-0.0015,0.0033,0.0035,0.0036,0,0,0,0,0,0,0,0,0,0,0,0,0,-0.0028,-0.0033,-0.006,-0.0049,-0.0048,-0.0043,-0.0042,-0.0041,-0.0015,-0.0015,-0.0015,-0.0015,0.0033,0.0034,0.0036,0.0048,0,0,0.0042,0.0043,0,0,0,0,0,0,0,0,-0.0028,-0.0028,-0.005,-0.005,-0.0049,-0.0035,-0.0015,-0.0011,-0.0015,-0.0022,-0.0015,-0.0015,0.001,0.0014,0.0024,0.005,0.0052,0.0042,0.0044,0.0044,0.0045,0,0,0,0,0,0,0,-0.0028,-0.0028,-0.0048,-0.0051,-0.005,-0.0032,-0.0031,-0.0013,-0.0002,-0.0021,-0.0021,-0.0027,0.0011,0.0022,0.0025,0.0053,0.0042,0.0044,0.0045,0.0046,0.0108,0.0109,0,0,0,0,0,0,-0.0043,-0.0029,-0.0048,-0.0048,-0.0044,-0.0033,-0.0032,-0.0035,-0.0002,0.0001,-0.0027,-0.0026,0.0019,0.0023,0.0027,0.0048,0.0044,0.0046,0.0047,0.0108,0.0109,0.0109,0,0,0,0,0,0,-0.0042,-0.0045,-0.0049,-0.0042,-0.0042,-0.0034,-0.0038,-0.0035,-0.0027,-0.0008,-0.0003,-0.0022,0.0019,0.0024,0.0045,0.005,0.0047,0.0049,0.0107,0.0108,0.0109,0.0087,0,0,0,0,0,0,-0.0041,-0.0044,-0.0044,-0.0043,-0.0043,-0.0057,-0.0039,-0.0035,-0.0033,-0.0031,-0.0003,0.0002,0.0019,0.0042,0.0047,0.0053,0.005,0.0107,0.0108,0.0109,0.0087,0.0087,0.0087,0,0,0,0,0,-0.004,-0.0053,-0.0044,-0.0047,-0.0046,-0.0058,-0.0056,-0.0046,-0.0033,-0.0036,-0.0007,0.0001,0.0052,0.0044,0.005,0.0056,0.0106,0.0107,0.0109,0.0088,0.0087,0.0087,0,0,0,0,0,0,-0.0048,-0.0052,-0.0042,-0.0057,-0.0059,-0.0056,-0.0061,-0.0049,-0.0027,-0.0022,0.0006,0.0012,0.0034,0.0049,0.004,0.0078,0.0081,0.0084,0.0063,0.0064,0.0063,0.0033,0.0052,0,0,0,0,0,-0.0049,-0.0052,-0.0058,-0.0067,-0.0073,-0.0062,-0.0063,-0.0057,-0.0045,-0.0035,-0.0012,0.0017,0.0044,0.0055,0.0078,0.0096,0.0093,0.0105,0.0105,0.0105,0.0085,0.0103,0.0102,0.0113,0.0113,0.0113,0,0,-0.0056,-0.0057,-0.006,-0.0067,-0.0067,-0.0085,-0.0062,-0.0072,-0.0075,-0.0033,-0.0021,0.0015,0.0049,0.0072,0.0083,0.0084,0.0098,0.0106,0.0106,0.0085,0.0104,0.0103,0.0102,0.0114,0.0113,0.0113,0,0,-0.0084,-0.0074,-0.0092,-0.0097,-0.0105,-0.0099,-0.0105,-0.01,-0.0085,-0.0071,-0.0034,0.0004,0.0035,0.0068,0.0087,0.0099,0.0098,0.0109,0.0082,0.0101,0.01,0.0098,0.0079,0.0077,0.0109,0.0109,0.0109,0,-0.0092,-0.0116,-0.0099,-0.0122,-0.0136,-0.0111,-0.0142,-0.0123,-0.0105,-0.0097,-0.0075,-0.001,0.0033,0.0061,0.0076,0.0098,0.009,0.008,0.0099,0.0098,0.0097,0.0078,0.0075,0.0108,0.0108,0.0108,0.0108,0,-0.0135,-0.0156,-0.0171,-0.0186,-0.0194,-0.0217,-0.0203,-0.0194,-0.0168,-0.0146,-0.0112,-0.0046,-0.0013,0.0021,0.0055,0.0076,0.0065,0.0096,0.0094,0.0094,0.0074,0.0072,0.0106,0.0107,0.0107,0.0107,0,0,-0.016,-0.0196,-0.0202,-0.0232,-0.0233,-0.0255,-0.0251,-0.0252,-0.0263,-0.0205,-0.0212,-0.0118,-0.0079,-0.0055,0.0003,0.0033,0.0042,0.0059,0.006,0.0028,0.0045,0.0114,0.0117,0.0073,0.0073,0.0073,0.0028,0,-0.0205,-0.0269,-0.0266,-0.0327,-0.0368,-0.0345,-0.0355,-0.0341,-0.0313,-0.0307,-0.0221,-0.0199,-0.011,-0.0092,-0.0043,0.0017,0.0035,0.0048,0.0058,0.0058,0.0111,0.0118,0.0222,0.0199,0.0026,0.0025,0.0025,0,-0.025,-0.0293,-0.0364,-0.0422,-0.0438,-0.0459,-0.0482,-0.0484,-0.045,-0.0428,-0.0375,-0.0318,-0.0249,-0.0179,-0.0087,-0.0088,-0.003,0.0019,0.0019,0.0086,0.0123,0.0175,0.0201,0.0326,0.0021,0.0021,0.0022,0,-0.0291,-0.0363,-0.0425,-0.0444,-0.0496,-0.0518,-0.0532,-0.0519,-0.0538,-0.0501,-0.052,-0.0422,-0.04,-0.0294,-0.0153,-0.0136,-0.007,-0.0034,0.007,0.0073,0.0165,0.0179,0.0306,0.001,0.001,0.001,0.001,0,-0.0341,-0.0394,-0.0455,-0.0493,-0.0577,-0.0579,-0.0644,-0.0637,-0.0645,-0.0687,-0.0584,-0.061,-0.0428,-0.0354,-0.0215,-0.0075,-0.0115,0.0053,0.0075,0.0161,0.0174,0.029,0.0309,0.0009,0.0009,0.0009,0.001,0,-0.0368,-0.0407,-0.0497,-0.0573,-0.06,-0.0655,-0.0727,-0.0773,-0.0767,-0.0822,-0.0819,-0.0767,-0.0655,-0.0463,-0.0309,-0.0173,0.0054,0.0025,0.0103,0.0137,0.0365,0.0377,0.0428,0.0528,0.0113,0.0114,0.0116,0,-0.0388,-0.0433,-0.0551,-0.062,-0.0657,-0.0739,-0.0799,-0.0823,-0.0877,-0.0926,-0.0969,-0.089,-0.0814,-0.0554,-0.0261,-0.0002,0.0094,0.0199,0.0276,0.0389,0.0417,0.0395,0.0475,0.037,0.0373,0.0376,0.0378,0,-0.0424,-0.0461,-0.0535,-0.0676,-0.0766,-0.0868,-0.0952,-0.1017,-0.1055,-0.1099,-0.1156,-0.1099,-0.0819,-0.0463,-0.0087,0.007,0.031,0.026,0.0372,0.0623,0.061,0.0715,0.0351,0.0402,0.04,0.0398,0.0397,0.0396,-0.0444,-0.0504,-0.0604,-0.0736,-0.0847,-0.0967,-0.103,-0.1115,-0.1196,-0.1199,-0.1232,-0.1028,-0.0523,0.0035,0.0143,0.0559,0.0476,0.0707,0.0702,0.066,0.0806,0.0479,0.0572,0.0571,0.0569,0.0568,0.0567,0,-0.0464,-0.0535,-0.0659,-0.0813,-0.0928,-0.0976,-0.1112,-0.1138,-0.1207,-0.1129,-0.1106,-0.0474,-0.0021,0.0408,0.0947,0.105,0.1044,0.1094,0.1108,0.1166,0.0892,0.0961,0.1151,0.1151,0.115,0.115,0.115,0.115,-0.0482,-0.0579,-0.0648,-0.0839,-0.0939,-0.1047,-0.1109,-0.1126,-0.1061,-0.0779,-0.0399,-0.0122,0.0566,0.1033,0.1409,0.1425,0.1513,0.1447,0.1481,0.1323,0.1287,0.1253,0.1329,0.1592,0.1593,0.1813,0.1815,0.1817]}],[{"header":{"parameterUnit":"m.s-1","parameterCategory":2,"la1":30.2991,"la2":30.254,"lo1":-89.0895,"lo2":-89.0444,"dy":0.0017,"dx":0.0017,"nx":28,"ny":28,"refTime":"2025-07-11T09:00:00:Z","depth":"2","parameterNumber":2,"parameterNumberName":"U-component_of_CURRENTS"},"data":[0,0,0,0,0,0,0,0,0,0,0,0,0,0,0,0,0,0,0,0,0,0,0,0,0,0,0,0,0,0,0,0,0,0,0,0,0,0,0,0,0,0,0,0,0,0,0,0,0,0,0,0,0,0,0,0,0,0,-0.2017,-0.202,0,-0.2171,-0.2171,-0.2171,-0.2164,-0.2164,-0.2164,-0.2163,-0.2088,-0.2086,-0.2084,0,0,0,0,0,0,0,0,0,0,0,0,0,-0.1659,-0.1664,-0.2017,-0.2021,-0.2024,-0.2171,-0.2171,-0.2171,-0.2164,-0.2164,-0.2164,-0.2163,-0.2088,-0.2086,-0.2084,0,0,0,0,0,0,0,0,0,0,0,0,0,-0.1794,-0.1666,-0.2016,-0.2054,-0.206,-0.2171,-0.2171,-0.2171,-0.2164,-0.2164,-0.2163,-0.2163,-0.2089,-0.2086,-0.2084,-0.2077,0,0,-0.2076,-0.2075,0,0,0,0,0,0,0,0,-0.1787,-0.1805,-0.2045,-0.2052,-0.2059,-0.2166,-0.2018,-0.2135,-0.2164,-0.2103,-0.2163,-0.2163,-0.2106,-0.2102,-0.2106,-0.2073,-0.207,-0.2076,-0.2074,-0.2073,-0.2072,0,0,0,0,0,0,0,-0.1777,-0.1798,-0.2057,-0.2049,-0.2058,-0.2045,-0.2061,-0.2039,-0.2085,-0.2108,-0.2113,-0.2163,-0.2106,-0.2109,-0.2104,-0.2069,-0.2076,-0.2073,-0.2072,-0.2071,-0.197,-0.1969,0,0,0,0,0,0,-0.1804,-0.179,-0.2053,-0.2064,-0.1942,-0.2053,-0.2071,-0.2115,-0.2091,-0.2094,-0.2164,-0.2163,-0.2113,-0.2107,-0.2101,-0.2058,-0.2073,-0.2071,-0.2069,-0.1971,-0.197,-0.1969,0,0,0,0,0,0,-0.1796,-0.1826,-0.2047,-0.1946,-0.1976,-0.2062,-0.211,-0.2119,-0.2112,-0.2139,-0.2133,-0.215,-0.2113,-0.2105,-0.2065,-0.2056,-0.2069,-0.2067,-0.1973,-0.1971,-0.197,-0.1991,0,0,0,0,0,0,-0.1784,-0.1821,-0.1828,-0.1948,-0.1984,-0.2127,-0.2114,-0.2123,-0.2155,-0.2154,-0.2125,-0.2119,-0.2112,-0.2069,-0.2063,-0.2052,-0.2065,-0.1974,-0.1972,-0.197,-0.1992,-0.1991,-0.1989,0,0,0,0,0,-0.1771,-0.1822,-0.1827,-0.1858,-0.2001,-0.2132,-0.2145,-0.219,-0.2155,-0.2171,-0.2126,-0.2119,-0.2051,-0.2066,-0.2059,-0.2048,-0.1975,-0.1973,-0.197,-0.1993,-0.1991,-0.1989,0,0,0,0,0,0,-0.168,-0.1832,-0.1839,-0.1932,-0.2024,-0.2138,-0.218,-0.2179,-0.2157,-0.2126,-0.2107,-0.2099,-0.2057,-0.2045,-0.2062,-0.201,-0.2011,-0.2007,-0.203,-0.2029,-0.2027,-0.2082,-0.2063,0,0,0,0,0,-0.1664,-0.1717,-0.1868,-0.1923,-0.1995,-0.2064,-0.2107,-0.2126,-0.2154,-0.2143,-0.2124,-0.2082,-0.2044,-0.2031,-0.2001,-0.1977,-0.1974,-0.1962,-0.1961,-0.196,-0.1997,-0.2022,-0.2028,-0.1961,-0.1961,-0.1961,0,0,-0.1637,-0.1729,-0.1754,-0.1903,-0.198,-0.207,-0.2085,-0.2161,-0.2179,-0.2134,-0.2121,-0.2072,-0.2032,-0.2004,-0.1985,-0.1994,-0.1954,-0.1957,-0.1957,-0.1995,-0.202,-0.2027,-0.2034,-0.1959,-0.1959,-0.196,0,0,-0.1656,-0.1713,-0.1785,-0.1865,-0.1995,-0.2049,-0.2069,-0.2167,-0.2165,-0.2144,-0.2107,-0.2069,-0.201,-0.2009,-0.1988,-0.1963,-0.1939,-0.1925,-0.1976,-0.1998,-0.2005,-0.2012,-0.1927,-0.1927,-0.1935,-0.1935,-0.1935,0,-0.1616,-0.1727,-0.182,-0.1921,-0.1987,-0.2042,-0.2124,-0.2144,-0.218,-0.2187,-0.2136,-0.2075,-0.2024,-0.2029,-0.2001,-0.1967,-0.1937,-0.1987,-0.2002,-0.2009,-0.2015,-0.1928,-0.1927,-0.1936,-0.1936,-0.1936,-0.1936,0,-0.1678,-0.1777,-0.1844,-0.197,-0.2041,-0.2119,-0.2201,-0.2217,-0.2187,-0.2199,-0.218,-0.2122,-0.2096,-0.2058,-0.2006,-0.2027,-0.1969,-0.1991,-0.2018,-0.2025,-0.1929,-0.1928,-0.1937,-0.1937,-0.1936,-0.1936,0,0,-0.1599,-0.1838,-0.1858,-0.1924,-0.2063,-0.2126,-0.2185,-0.2273,-0.2282,-0.2272,-0.2285,-0.2217,-0.2186,-0.2162,-0.2111,-0.2125,-0.2079,-0.2068,-0.2069,-0.2004,-0.2046,-0.1928,-0.1914,-0.2109,-0.2111,-0.2113,-0.1929,0,-0.1627,-0.1787,-0.1905,-0.2022,-0.2124,-0.2201,-0.2246,-0.2293,-0.2303,-0.2316,-0.2302,-0.2274,-0.2228,-0.218,-0.2193,-0.2104,-0.2091,-0.2122,-0.2034,-0.203,-0.1945,-0.1917,-0.1757,-0.1577,-0.1928,-0.1927,-0.1927,0,-0.1654,-0.1763,-0.1894,-0.2058,-0.2109,-0.2161,-0.2236,-0.2278,-0.2341,-0.2339,-0.2366,-0.2343,-0.2332,-0.2287,-0.222,-0.2234,-0.2143,-0.2092,-0.2084,-0.1989,-0.1915,-0.1642,-0.1561,-0.1925,-0.1925,-0.1925,-0.1926,0,-0.152,-0.1755,-0.1837,-0.189,-0.2077,-0.2127,-0.2191,-0.2273,-0.2282,-0.2361,-0.2335,-0.2384,-0.2315,-0.2308,-0.2175,-0.219,-0.2085,-0.2094,-0.1915,-0.19,-0.1758,-0.173,-0.2082,-0.2082,-0.2082,-0.2083,-0.2083,0,-0.1499,-0.1578,-0.1783,-0.1818,-0.1894,-0.2036,-0.2079,-0.2164,-0.2221,-0.2219,-0.2315,-0.2288,-0.2319,-0.2258,-0.219,-0.2017,-0.2093,-0.1918,-0.1871,-0.1745,-0.1719,-0.2048,-0.2046,-0.2076,-0.2077,-0.2079,-0.208,0,-0.1382,-0.1513,-0.1618,-0.1795,-0.1847,-0.188,-0.1997,-0.201,-0.2089,-0.2086,-0.21,-0.2162,-0.2097,-0.2095,-0.2028,-0.1961,-0.1873,-0.1801,-0.1596,-0.153,-0.1654,-0.1656,-0.1575,-0.157,-0.1566,-0.1562,-0.1559,0,-0.1351,-0.1392,-0.1544,-0.1587,-0.1686,-0.176,-0.1799,-0.1918,-0.1935,-0.1989,-0.1964,-0.1942,-0.1893,-0.1752,-0.1675,-0.1553,-0.1694,-0.1351,-0.1391,-0.1653,-0.1615,-0.1623,-0.163,-0.115,-0.1144,-0.1139,-0.1135,0,-0.1286,-0.1317,-0.1389,-0.1465,-0.1527,-0.1584,-0.166,-0.1645,-0.1757,-0.1747,-0.1729,-0.1703,-0.1577,-0.1408,-0.1288,-0.1218,-0.1377,-0.1242,-0.159,-0.1325,-0.1245,-0.121,-0.1232,-0.109,-0.1095,-0.1098,-0.11,-0.1102,-0.1211,-0.1221,-0.1287,-0.1359,-0.1409,-0.1423,-0.1406,-0.1457,-0.1438,-0.1408,-0.147,-0.1367,-0.1346,-0.1064,-0.0957,-0.0872,-0.0989,-0.0964,-0.0983,-0.1007,-0.1013,-0.0933,-0.0712,-0.0715,-0.0717,-0.0718,-0.072,0,-0.1135,-0.1153,-0.1192,-0.1254,-0.1252,-0.1318,-0.1325,-0.1274,-0.1208,-0.1139,-0.109,-0.0967,-0.0804,-0.0785,-0.0547,-0.0488,-0.052,-0.0489,-0.0547,-0.0589,-0.0627,-0.062,-0.0212,-0.0211,-0.021,-0.0209,0,0,-0.1095,-0.1089,-0.111,-0.1103,-0.1132,-0.1077,-0.1047,-0.0974,-0.0892,-0.0759,-0.0676,-0.0698,-0.071,-0.0477,-0.0397,-0.0251,-0.0415,-0.0214,-0.0612,-0.0717,-0.0754,-0.088,-0.0912,0,0,0,0,0]},{"header":{"parameterUnit":"m.s-1","parameterCategory":2,"la1":30.2991,"la2":30.254,"lo1":-89.0895,"lo2":-89.0444,"dy":0.0017,"dx":0.0017,"nx":28,"ny":28,"refTime":"2025-07-11T09:00:00:Z","depth":"2","parameterNumber":3,"parameterNumberName":"V-component_of_CURRENTS"},"data":[0,0,0,0,0,0,0,0,0,0,0,0,0,0,0,0,0,0,0,0,0,0,0,0,0,0,0,0,0,0,0,0,0,0,0,0,0,0,0,0,0,0,0,0,0,0,0,0,0,0,0,0,0,0,0,0,0,0,0.0115,0.0117,0,0.0248,0.0249,0.025,0.03,0.03,0.0301,0.0301,0.0365,0.0367,0.0368,0,0,0,0,0,0,0,0,0,0,0,0,0,-0.0008,-0.0007,0.0115,0.0117,0.012,0.0248,0.0249,0.025,0.03,0.03,0.0301,0.0301,0.0365,0.0367,0.0369,0,0,0,0,0,0,0,0,0,0,0,0,0,0.0071,-0.0007,0.0115,0.0165,0.0171,0.0247,0.0249,0.025,0.03,0.03,0.0301,0.0301,0.0364,0.0367,0.0369,0.0379,0,0,0.0376,0.0377,0,0,0,0,0,0,0,0,0.0066,0.0074,0.0155,0.0161,0.0169,0.0263,0.023,0.0292,0.03,0.0245,0.0301,0.0301,0.0329,0.0334,0.0351,0.0382,0.0384,0.0376,0.0378,0.0379,0.0379,0,0,0,0,0,0,0,0.006,0.007,0.0162,0.0158,0.0166,0.021,0.022,0.0242,0.0278,0.025,0.0255,0.0279,0.0331,0.0348,0.0352,0.0385,0.0376,0.0378,0.038,0.0381,0.0439,0.0439,0,0,0,0,0,0,0.0052,0.0064,0.0158,0.0166,0.0124,0.0212,0.0223,0.0227,0.0279,0.029,0.0279,0.0281,0.0344,0.035,0.0355,0.0355,0.0379,0.0381,0.0382,0.0439,0.0439,0.0439,0,0,0,0,0,0,0.0048,0.0058,0.0152,0.0124,0.014,0.0214,0.0219,0.023,0.023,0.0303,0.0311,0.0266,0.0345,0.0352,0.0369,0.0359,0.0382,0.0384,0.0439,0.0439,0.0439,0.0365,0,0,0,0,0,0,0.0043,0.0055,0.0048,0.0123,0.0142,0.019,0.022,0.0233,0.0249,0.0253,0.0295,0.0303,0.0345,0.0365,0.0372,0.0362,0.0386,0.0439,0.0439,0.0439,0.0367,0.0363,0.0359,0,0,0,0,0,0.0038,0.0033,0.0046,0.0058,0.0131,0.0191,0.0203,0.0254,0.0248,0.0251,0.0279,0.0301,0.0372,0.0367,0.0374,0.0366,0.0438,0.0439,0.0439,0.0369,0.0364,0.0359,0,0,0,0,0,0,-0.0017,0.004,0.0056,0.0069,0.0122,0.0201,0.0217,0.0233,0.0257,0.0245,0.0297,0.0308,0.0323,0.0354,0.0347,0.0386,0.041,0.0412,0.0355,0.035,0.0346,0.0339,0.0388,0,0,0,0,0,-0.0035,-0.0034,0.004,0.0047,0.0073,0.0131,0.0157,0.018,0.0221,0.023,0.0265,0.0299,0.0334,0.0346,0.0384,0.0394,0.0418,0.0397,0.0392,0.0388,0.0389,0.0424,0.0422,0.044,0.044,0.044,0,0,-0.005,-0.0022,-0.0018,0.0034,0.0077,0.0107,0.0145,0.017,0.0184,0.0231,0.0248,0.028,0.0333,0.0358,0.0367,0.0378,0.0391,0.0389,0.0385,0.0388,0.0424,0.0422,0.042,0.044,0.044,0.044,0,0,-0.008,-0.0059,-0.0064,-0.003,0.0021,0.0068,0.0065,0.0126,0.0146,0.0163,0.0207,0.0233,0.0276,0.0326,0.0352,0.0344,0.0368,0.0348,0.0317,0.0349,0.0348,0.0347,0.0349,0.0349,0.0345,0.0344,0.0344,0,-0.0101,-0.0102,-0.0053,-0.0048,-0.0022,0.0042,0.0047,0.0085,0.0138,0.0149,0.0156,0.0229,0.0268,0.0312,0.0315,0.0333,0.0342,0.0327,0.0342,0.0342,0.0342,0.0345,0.0346,0.0341,0.0341,0.0342,0.0342,0,-0.0131,-0.0131,-0.0127,-0.01,-0.0068,-0.0055,0.0013,0.003,0.005,0.0089,0.0121,0.0182,0.022,0.0243,0.0274,0.0299,0.0299,0.033,0.0348,0.0335,0.034,0.0342,0.0336,0.0337,0.0338,0.0339,0,0,-0.017,-0.0154,-0.0152,-0.0164,-0.0104,-0.0087,-0.0054,-0.0002,-0.0006,0.0052,0.0058,0.0134,0.0152,0.0184,0.023,0.0269,0.027,0.0288,0.0292,0.0278,0.0311,0.0355,0.0361,0.0294,0.0295,0.0295,0.0303,0,-0.0204,-0.0225,-0.0198,-0.0211,-0.0207,-0.0152,-0.0133,-0.0091,-0.0047,-0.0023,0.0055,0.0074,0.0136,0.0129,0.0183,0.0251,0.0276,0.0263,0.0337,0.0339,0.0371,0.0367,0.0391,0.0404,0.0305,0.0305,0.0306,0,-0.0233,-0.0246,-0.027,-0.0286,-0.028,-0.0283,-0.0257,-0.0238,-0.0168,-0.0146,-0.0092,-0.0035,0.0034,0.0076,0.0191,0.0173,0.0228,0.0288,0.029,0.0363,0.0389,0.0409,0.0412,0.031,0.031,0.0309,0.0309,0,-0.028,-0.0297,-0.0327,-0.0328,-0.0321,-0.0341,-0.034,-0.0286,-0.0268,-0.0231,-0.0215,-0.0129,-0.0083,0.0004,0.0136,0.0146,0.026,0.0288,0.0382,0.0384,0.0439,0.0446,0.0358,0.0358,0.0358,0.0358,0.0358,0,-0.0319,-0.0345,-0.0368,-0.0386,-0.0439,-0.0425,-0.0456,-0.044,-0.0404,-0.0378,-0.0298,-0.024,-0.0096,0.0003,0.0098,0.0249,0.0226,0.0376,0.0398,0.0412,0.0416,0.0372,0.0373,0.0358,0.0358,0.0358,0.0358,0,-0.0356,-0.0363,-0.0403,-0.0438,-0.0459,-0.0501,-0.0522,-0.0533,-0.0507,-0.0468,-0.0461,-0.032,-0.0191,-0.0048,0.0104,0.0214,0.0332,0.0385,0.0378,0.0401,0.0434,0.0432,0.048,0.0482,0.0483,0.0485,0.0486,0,-0.0377,-0.0401,-0.0448,-0.0481,-0.0505,-0.0561,-0.0586,-0.0582,-0.0572,-0.0491,-0.0466,-0.0338,-0.0183,0.0048,0.0211,0.0367,0.0368,0.0482,0.0529,0.0435,0.0451,0.0446,0.0442,0.0553,0.0554,0.0555,0.0556,0,-0.0414,-0.0425,-0.0456,-0.0525,-0.0571,-0.061,-0.065,-0.065,-0.062,-0.0561,-0.0452,-0.0328,-0.0083,0.0155,0.0357,0.0448,0.0458,0.0516,0.0424,0.0527,0.0508,0.0522,0.0514,0.0568,0.0566,0.0566,0.0565,0.0565,-0.0432,-0.0464,-0.0506,-0.0569,-0.0628,-0.067,-0.0677,-0.0671,-0.0635,-0.052,-0.0416,-0.0153,0.0047,0.0418,0.0479,0.054,0.0569,0.0628,0.0622,0.0616,0.0632,0.0618,0.0699,0.0699,0.0698,0.0698,0.0698,0,-0.0458,-0.0497,-0.0558,-0.062,-0.0681,-0.072,-0.0721,-0.0676,-0.0613,-0.0463,-0.0311,0.002,0.0311,0.0474,0.0611,0.0684,0.0641,0.0672,0.0628,0.062,0.0613,0.0625,0.0692,0.0691,0.069,0.069,0,0,-0.0475,-0.0527,-0.0558,-0.0655,-0.0724,-0.077,-0.077,-0.0669,-0.0538,-0.0358,-0.0128,0.0175,0.0426,0.0523,0.0584,0.0632,0.0571,0.0609,0.0623,0.0553,0.0541,0.062,0.0638,0,0,0,0,0]}],[{"header":{"parameterUnit":"m.s-1","parameterCategory":2,"la1":30.2991,"la2":30.254,"lo1":-89.0895,"lo2":-89.0444,"dy":0.0017,"dx":0.0017,"nx":28,"ny":28,"refTime":"2025-07-11T09:00:00:Z","depth":"4","parameterNumber":2,"parameterNumberName":"U-component_of_CURRENTS"},"data":[0,0,0,0,0,0,0,0,0,0,0,0,0,0,0,0,0,0,0,0,0,0,0,0,0,0,0,0,0,0,0,0,0,0,0,0,0,0,0,0,0,0,0,0,0,0,0,0,0,0,0,0,0,0,0,0,0,0,-0.1207,-0.1207,0,-0.119,-0.119,-0.119,-0.1191,-0.1192,-0.1192,-0.1192,-0.1285,-0.1287,-0.1289,0,0,0,0,0,0,0,0,0,0,0,0,0,-0.1144,-0.1146,-0.1207,-0.1207,-0.1207,-0.1191,-0.119,-0.119,-0.1191,-0.1192,-0.1192,-0.1193,-0.1284,-0.1286,-0.1289,0,0,0,0,0,0,0,0,0,0,0,0,0,-0.1153,-0.1147,-0.1207,-0.1207,-0.1207,-0.1191,-0.119,-0.119,-0.1191,-0.1192,-0.1192,-0.1193,-0.1283,-0.1286,-0.1289,-0.1295,0,0,-0.1299,-0.13,0,0,0,0,0,0,0,0,-0.1152,-0.1155,-0.1207,-0.1207,-0.1207,-0.1195,-0.1202,-0.1231,-0.1191,-0.1195,-0.1192,-0.1193,-0.1266,-0.127,-0.1261,-0.13,-0.1304,-0.1299,-0.1301,-0.1302,-0.1303,0,0,0,0,0,0,0,-0.1152,-0.1155,-0.1199,-0.1207,-0.1207,-0.1175,-0.1178,-0.1206,-0.1228,-0.1195,-0.1195,-0.1196,-0.1266,-0.1258,-0.1264,-0.1305,-0.1299,-0.1302,-0.1304,-0.1305,-0.1396,-0.1397,0,0,0,0,0,0,-0.1162,-0.1155,-0.1199,-0.1198,-0.1183,-0.1177,-0.1179,-0.1197,-0.1225,-0.1229,-0.1196,-0.1197,-0.1253,-0.126,-0.1267,-0.1338,-0.1302,-0.1305,-0.1307,-0.1395,-0.1396,-0.1397,0,0,0,0,0,0,-0.1161,-0.1167,-0.12,-0.1176,-0.1179,-0.1178,-0.1197,-0.1196,-0.1203,-0.1225,-0.1231,-0.1205,-0.1253,-0.1263,-0.1313,-0.1339,-0.1306,-0.1309,-0.1395,-0.1396,-0.1397,-0.144,0,0,0,0,0,0,-0.116,-0.1167,-0.1187,-0.1178,-0.1181,-0.1203,-0.1197,-0.1196,-0.1202,-0.1203,-0.1235,-0.1243,-0.1255,-0.1308,-0.1316,-0.1343,-0.1312,-0.1394,-0.1395,-0.1396,-0.1438,-0.1442,-0.1446,0,0,0,0,0,-0.1158,-0.1178,-0.1189,-0.1194,-0.1208,-0.1203,-0.1202,-0.12,-0.1202,-0.1208,-0.1236,-0.1242,-0.132,-0.1312,-0.1321,-0.1349,-0.1394,-0.1395,-0.1396,-0.1436,-0.1441,-0.1446,0,0,0,0,0,0,-0.1154,-0.118,-0.1192,-0.1218,-0.1219,-0.1205,-0.1208,-0.1208,-0.1228,-0.1238,-0.1258,-0.1268,-0.132,-0.1325,-0.1315,-0.1375,-0.1355,-0.1358,-0.1382,-0.1387,-0.1391,-0.1376,-0.1314,0,0,0,0,0,-0.1166,-0.1194,-0.1202,-0.1223,-0.1225,-0.122,-0.122,-0.1221,-0.1233,-0.1242,-0.1264,-0.1291,-0.1327,-0.1351,-0.1376,-0.1415,-0.1409,-0.1434,-0.1438,-0.1442,-0.1433,-0.1459,-0.1465,-0.1401,-0.1401,-0.1401,0,0,-0.1167,-0.1187,-0.1201,-0.1225,-0.1223,-0.1229,-0.1221,-0.1226,-0.1236,-0.1252,-0.1282,-0.1311,-0.1341,-0.1384,-0.1407,-0.1396,-0.1455,-0.1443,-0.1447,-0.1436,-0.1461,-0.1467,-0.1473,-0.1402,-0.1402,-0.1402,0,0,-0.1169,-0.1204,-0.122,-0.1227,-0.1238,-0.124,-0.1247,-0.1247,-0.1256,-0.1289,-0.1306,-0.1348,-0.1394,-0.1418,-0.1438,-0.1477,-0.1477,-0.1489,-0.1503,-0.1529,-0.1534,-0.1539,-0.1534,-0.1538,-0.1491,-0.1491,-0.1491,0,-0.117,-0.1198,-0.122,-0.123,-0.1238,-0.1249,-0.1256,-0.1265,-0.1283,-0.1301,-0.1307,-0.1376,-0.1406,-0.146,-0.1477,-0.1488,-0.1493,-0.1487,-0.1535,-0.1539,-0.1543,-0.1537,-0.1541,-0.1493,-0.1493,-0.1493,-0.1492,0,-0.1173,-0.1201,-0.1207,-0.1237,-0.1249,-0.1256,-0.1275,-0.1297,-0.1317,-0.1328,-0.1382,-0.1417,-0.1457,-0.1477,-0.1497,-0.1544,-0.1534,-0.154,-0.1524,-0.1553,-0.1544,-0.1547,-0.1496,-0.1496,-0.1495,-0.1494,0,0,-0.1155,-0.1203,-0.1206,-0.1226,-0.1255,-0.1265,-0.1297,-0.1327,-0.1359,-0.1381,-0.142,-0.1475,-0.1491,-0.1513,-0.1538,-0.1562,-0.1603,-0.1568,-0.1568,-0.1564,-0.1644,-0.1492,-0.148,-0.1627,-0.1628,-0.1629,-0.1623,0,-0.1149,-0.1179,-0.1205,-0.1234,-0.1249,-0.1283,-0.1314,-0.1349,-0.1386,-0.143,-0.146,-0.151,-0.1505,-0.1543,-0.1564,-0.1605,-0.1614,-0.1602,-0.1613,-0.1613,-0.1477,-0.148,-0.1632,-0.1626,-0.1626,-0.1627,-0.1627,0,-0.1135,-0.1164,-0.1193,-0.125,-0.126,-0.1285,-0.1351,-0.1378,-0.1441,-0.1475,-0.1515,-0.1543,-0.1588,-0.1582,-0.1625,-0.1622,-0.1629,-0.1642,-0.1643,-0.1484,-0.1466,-0.1592,-0.1633,-0.1632,-0.1632,-0.1632,-0.1631,0,-0.1105,-0.1154,-0.1186,-0.12,-0.1263,-0.1293,-0.1329,-0.1393,-0.143,-0.1504,-0.1544,-0.1587,-0.1624,-0.164,-0.1649,-0.1657,-0.168,-0.1694,-0.155,-0.1539,-0.1662,-0.1657,-0.1707,-0.1707,-0.1707,-0.1707,-0.1707,0,-0.1079,-0.1106,-0.1181,-0.1194,-0.124,-0.1287,-0.1344,-0.1391,-0.1464,-0.1501,-0.1562,-0.159,-0.1646,-0.1661,-0.166,-0.1593,-0.1682,-0.1536,-0.1525,-0.1678,-0.1675,-0.1664,-0.1659,-0.1707,-0.1707,-0.1707,-0.1707,0,-0.103,-0.1079,-0.1122,-0.1199,-0.1225,-0.1257,-0.1342,-0.1379,-0.1459,-0.1512,-0.1537,-0.1611,-0.1607,-0.1621,-0.1649,-0.159,-0.1559,-0.1513,-0.1651,-0.1651,-0.1401,-0.1398,-0.1353,-0.1348,-0.1343,-0.1339,-0.1336,0,-0.1003,-0.1022,-0.1114,-0.1138,-0.1172,-0.1233,-0.1267,-0.1361,-0.1395,-0.1499,-0.1509,-0.1547,-0.1567,-0.147,-0.1503,-0.1449,-0.1431,-0.1411,-0.1415,-0.1368,-0.1364,-0.1369,-0.1372,-0.1329,-0.1327,-0.1326,-0.1325,0,-0.0948,-0.0994,-0.1029,-0.1081,-0.1124,-0.1171,-0.1227,-0.1249,-0.1343,-0.1436,-0.1431,-0.1415,-0.1396,-0.1376,-0.1329,-0.1303,-0.1427,-0.1363,-0.1373,-0.1376,-0.1338,-0.1339,-0.1348,-0.1309,-0.1311,-0.1313,-0.1314,0,-0.0907,-0.0921,-0.0972,-0.1008,-0.1059,-0.1077,-0.1127,-0.1154,-0.12,-0.1311,-0.1303,-0.1329,-0.1386,-0.1297,-0.1265,-0.1204,-0.1187,-0.1163,-0.1183,-0.1201,-0.1148,-0.1077,-0.0943,0,0,0,0,0,-0.0857,-0.0862,-0.0889,-0.0924,-0.097,-0.0998,-0.1079,-0.1133,-0.1231,-0.1186,-0.1239,-0.1206,-0.1146,-0.1168,-0.1067,-0.1179,-0.1188,-0.1058,-0.1171,-0.122,-0.1238,-0.1185,0,0,0,0,0,0,-0.0822,-0.0848,-0.0859,-0.0839,-0.0843,-0.0884,-0.093,-0.1002,-0.0986,-0.1084,-0.1054,-0.1121,-0.1075,-0.1169,-0.1038,-0.1038,-0.108,-0.1075,-0.1071,-0.1209,-0.1226,-0.1241,-0.1193,0,0,0,0,0]},{"header":{"parameterUnit":"m.s-1","parameterCategory":2,"la1":30.2991,"la2":30.254,"lo1":-89.0895,"lo2":-89.0444,"dy":0.0017,"dx":0.0017,"nx":28,"ny":28,"refTime":"2025-07-11T09:00:00:Z","depth":"4","parameterNumber":3,"parameterNumberName":"V-component_of_CURRENTS"},"data":[0,0,0,0,0,0,0,0,0,0,0,0,0,0,0,0,0,0,0,0,0,0,0,0,0,0,0,0,0,0,0,0,0,0,0,0,0,0,0,0,0,0,0,0,0,0,0,0,0,0,0,0,0,0,0,0,0,0,-0.0018,-0.0018,0,-0.006,-0.006,-0.0061,-0.0067,-0.0066,-0.0066,-0.0065,-0.0062,-0.0062,-0.0063,0,0,0,0,0,0,0,0,0,0,0,0,0,-0.0029,-0.0029,-0.0018,-0.0018,-0.0018,-0.0059,-0.006,-0.0062,-0.0067,-0.0066,-0.0065,-0.0064,-0.0061,-0.0062,-0.0063,0,0,0,0,0,0,0,0,0,0,0,0,0,-0.0047,-0.0029,-0.0018,-0.0023,-0.0023,-0.0059,-0.0061,-0.0062,-0.0068,-0.0066,-0.0065,-0.0064,-0.0061,-0.0062,-0.0063,-0.0094,0,0,-0.0066,-0.0067,0,0,0,0,0,0,0,0,-0.0046,-0.0047,-0.0022,-0.0022,-0.0023,-0.0053,-0.0063,-0.0069,-0.0068,-0.0056,-0.0065,-0.0063,-0.0052,-0.0054,-0.0072,-0.0094,-0.0094,-0.0066,-0.0067,-0.0067,-0.0068,0,0,0,0,0,0,0,-0.0045,-0.0046,-0.0039,-0.0022,-0.0022,-0.0051,-0.0052,-0.0065,-0.0063,-0.0057,-0.0056,-0.0054,-0.0053,-0.0071,-0.0072,-0.0094,-0.0066,-0.0067,-0.0068,-0.0068,-0.0125,-0.0125,0,0,0,0,0,0,-0.0027,-0.0045,-0.0038,-0.004,-0.0026,-0.0052,-0.0053,-0.0048,-0.0064,-0.0064,-0.0054,-0.0053,-0.007,-0.0071,-0.0071,-0.0089,-0.0067,-0.0068,-0.0069,-0.0124,-0.0125,-0.0126,0,0,0,0,0,0,-0.0027,-0.0026,-0.0036,-0.004,-0.0042,-0.0051,-0.0047,-0.005,-0.0064,-0.0062,-0.0062,-0.0064,-0.0069,-0.007,-0.0083,-0.0089,-0.0069,-0.007,-0.0123,-0.0124,-0.0125,-0.0137,0,0,0,0,0,0,-0.0027,-0.0026,-0.0027,-0.0038,-0.0041,-0.0057,-0.0048,-0.0051,-0.0062,-0.0061,-0.0071,-0.007,-0.0068,-0.0082,-0.0084,-0.009,-0.007,-0.0122,-0.0123,-0.0125,-0.0135,-0.0138,-0.0141,0,0,0,0,0,-0.0027,-0.0034,-0.0027,-0.0026,-0.0039,-0.0057,-0.0063,-0.0069,-0.0064,-0.0077,-0.008,-0.0069,-0.0094,-0.0084,-0.0086,-0.0093,-0.0121,-0.0123,-0.0125,-0.0134,-0.0137,-0.0141,0,0,0,0,0,0,-0.0046,-0.0035,-0.0027,-0.0032,-0.004,-0.0056,-0.0069,-0.0072,-0.009,-0.0086,-0.0084,-0.0084,-0.01,-0.0099,-0.0088,-0.0115,-0.0105,-0.0107,-0.0111,-0.0114,-0.0117,-0.0104,-0.0071,0,0,0,0,0,-0.0047,-0.0048,-0.0044,-0.0051,-0.005,-0.0061,-0.0071,-0.0074,-0.0084,-0.0091,-0.0098,-0.0105,-0.0115,-0.0114,-0.0129,-0.0143,-0.0103,-0.0149,-0.0152,-0.0154,-0.0147,-0.0092,-0.0088,-0.0132,-0.0132,-0.0132,0,0,-0.0058,-0.0052,-0.0053,-0.0055,-0.0061,-0.0076,-0.0065,-0.008,-0.0096,-0.0087,-0.0117,-0.012,-0.0124,-0.0141,-0.0147,-0.0136,-0.012,-0.0156,-0.0158,-0.0149,-0.0094,-0.0089,-0.0085,-0.0134,-0.0133,-0.0133,0,0,-0.0082,-0.007,-0.0078,-0.0085,-0.0087,-0.0093,-0.0094,-0.0109,-0.0116,-0.0142,-0.0138,-0.0139,-0.0167,-0.0162,-0.0163,-0.019,-0.0143,-0.02,-0.0195,-0.0142,-0.0137,-0.0132,-0.0066,-0.0055,-0.0193,-0.0193,-0.0193,0,-0.0095,-0.01,-0.0088,-0.01,-0.0106,-0.0099,-0.0115,-0.0129,-0.015,-0.0149,-0.0151,-0.0169,-0.0174,-0.0172,-0.0184,-0.0194,-0.015,-0.0179,-0.0142,-0.0137,-0.0131,-0.0065,-0.0052,-0.0194,-0.0194,-0.0193,-0.0193,0,-0.0126,-0.013,-0.0138,-0.0143,-0.0153,-0.0166,-0.0168,-0.018,-0.0183,-0.0186,-0.019,-0.0194,-0.0192,-0.0201,-0.0203,-0.0176,-0.0152,-0.0155,-0.0126,-0.0127,-0.0057,-0.0044,-0.0195,-0.0194,-0.0194,-0.0194,0,0,-0.0149,-0.0156,-0.0159,-0.0165,-0.0173,-0.0184,-0.02,-0.0204,-0.0201,-0.0215,-0.0203,-0.0224,-0.0204,-0.0204,-0.0198,-0.0158,-0.0088,-0.0141,-0.0137,-0.0061,0.005,0.0046,0.006,-0.0077,-0.0075,-0.0074,0.0088,0,-0.0175,-0.02,-0.0198,-0.0226,-0.0236,-0.0229,-0.0243,-0.0244,-0.0237,-0.0226,-0.0205,-0.0202,-0.021,-0.02,-0.0162,-0.0111,-0.0056,-0.013,0.0027,0.0032,0.004,0.0074,-0.0068,0.0098,0.0101,0.0103,0.0105,0,-0.0203,-0.0213,-0.0241,-0.025,-0.0253,-0.0271,-0.0267,-0.0279,-0.0251,-0.024,-0.0213,-0.0192,-0.0145,-0.0151,-0.0036,-0.0079,-0.0014,0.0031,0.0038,0.0049,0.0052,0.0095,0.0129,0.0127,0.0125,0.0124,0.0122,0,-0.0221,-0.0242,-0.0262,-0.027,-0.0282,-0.0288,-0.0295,-0.028,-0.0283,-0.0238,-0.0218,-0.0159,-0.0119,-0.0039,0.0039,0.0016,0.0182,0.0165,0.0231,0.0232,0.0193,0.0186,0.0265,0.0264,0.0264,0.0263,0.0263,0,-0.0246,-0.0263,-0.0272,-0.0285,-0.0306,-0.0304,-0.0317,-0.0308,-0.0285,-0.0269,-0.0223,-0.0177,-0.0088,0.0005,0.0074,0.0198,0.0218,0.025,0.0276,0.0184,0.0174,0.0204,0.0195,0.027,0.0268,0.0267,0.0266,0,-0.0266,-0.0272,-0.0296,-0.031,-0.0318,-0.0332,-0.0349,-0.0351,-0.032,-0.0289,-0.0272,-0.017,-0.0034,0.0057,0.0211,0.0248,0.0359,0.0398,0.0314,0.033,0.0371,0.0359,0.0503,0.0505,0.0506,0.0507,0.0507,0,-0.0278,-0.0292,-0.032,-0.0337,-0.0347,-0.0369,-0.0384,-0.0374,-0.037,-0.0279,-0.0256,-0.0116,-0.0041,0.0197,0.028,0.0437,0.0435,0.0493,0.0409,0.0386,0.0398,0.0384,0.0371,0.0509,0.0509,0.051,0.051,0,-0.0301,-0.0311,-0.033,-0.0361,-0.0385,-0.0414,-0.0427,-0.0427,-0.039,-0.0358,-0.0208,-0.0083,0.008,0.023,0.035,0.0448,0.0451,0.0505,0.0502,0.0423,0.0395,0.0402,0.0388,0.0514,0.0513,0.0513,0.0513,0,-0.0314,-0.0333,-0.0354,-0.0377,-0.0413,-0.0437,-0.0449,-0.041,-0.0389,-0.0286,-0.0222,-0.0043,0.0069,0.0241,0.0351,0.0447,0.0455,0.0455,0.0455,0.0452,0.0361,0.0312,0.0448,0,0,0,0,0,-0.0324,-0.0342,-0.0369,-0.0394,-0.0429,-0.0443,-0.0463,-0.0465,-0.0423,-0.0316,-0.0268,-0.0107,0.0105,0.021,0.031,0.033,0.0435,0.0444,0.0425,0.0535,0.053,0.0428,0,0,0,0,0,0,-0.0331,-0.0361,-0.0365,-0.0395,-0.0414,-0.0449,-0.0462,-0.0439,-0.0374,-0.0305,-0.018,-0.0095,0.0112,0.0063,0.0318,0.0348,0.0342,0.0551,0.0553,0.0537,0.0533,0.053,0.0423,0,0,0,0,0]}]]